Location: Campillo
(40.8621°N, 4.2488°W)
Time: 12:41:09
(UTC+00:00)

Cosmos 2366 rocket - Pass Details

Date: 11 May 2021
Orbit: 955 x 997 km, 82.9° (Epoch: 13 June)

Event Time Altitude Azimuth Distance (km) Brightness Sun altitude
Rises 23:32:13 0° 350° (N) 3,651 8.2 -30.2°
Reaches altitude 10° 23:34:43 10° 349° (NNW) 2,704 7.2 -30.3°
Enters shadow 23:40:39 72° 283° (WNW) 1,018 4.0 -30.5°
